Regional Weather Roundup
Issued by NWS

Home | Current Version | Previous Version | Graphics & Text | Print | Product List | Glossary On
Versions: 1 2 3 4 5 6 7 8 9 10 11 12 13 14 15 16 17 18 19 20 21 22 23 24 25 26 27 28 29 30 31 32 33 34 35 36 37 38 39 40 41 42 43 44 45 46 47 48 49 50
000
ASUS43 KDMX 250007
RWRIA

WEATHER ROUNDUP FOR IOWA
NATIONAL WEATHER SERVICE DES MOINES IA
600 PM CST WED DEC 24 2014

NOTE: "FAIR" INDICATES FEW OR NO CLOUDS BELOW 12,000 FEET WITH NO
SIGNIFICANT WEATHER AND/OR OBSTRUCTIONS TO VISIBILITY.

* - THESE STATIONS ARE NOT NWS STATIONS...THUS NOT UNDER NWS
QUALITY CONTROL.  THEY ALSO DO NOT REPORT WEATHER SUCH
AS PRECIPITATION OR FOG.

IAZ001>003-012>014-020>022-031>034-043>046-250100-
   NORTHWEST IOWA

CITY           SKY/WX    TMP DP  RH WIND       PRES   REMARKS
CARROLL *      CLOUDY    30  28  93 W13       29.73R WCI  20
CHEROKEE *     CLOUDY    26  26 100 SW6       29.70F FOG     WCI  19
DENISON *      CLOUDY    28  28 100 SW12      29.71F FOG     WCI  18
LE MARS *      CLOUDY    28  27  93 S10       29.71S WCI  19
ORANGE CITY *  CLOUDY    27  25  93 SW9       29.68S FOG     WCI  17
SHELDON *      CLOUDY    27  27 100 SW7       29.66F FOG     WCI  19
SIOUX CITY     CLOUDY    29  26  89 SW8       29.73S WCI  21
6HR MIN TEMP:  28; 6HR MAX TEMP:  30;

SPENCER        CLOUDY    28  26  92 W10       29.67F FOG     WCI  19
6HR MIN TEMP:  28; 6HR MAX TEMP:  34;

STORM LAKE *   FOG       27  27 100 W10       29.69F VSB 1/4 WCI  17
$$

IAZ055>058-069>071-079>083-090>094-250100-
   SOUTHWEST IOWA

CITY           SKY/WX    TMP DP  RH WIND       PRES   REMARKS
ATLANTIC *     CLOUDY    30  28  93 W12       29.76R WCI  21
AUDUBON *      CLOUDY    28  25  86 W6        29.75R WCI  22
CLARINDA *     CLOUDY    32  30  93 W7        29.80F WCI  26
COUNCIL BLFS * CLOUDY    28  28 100 SW12      29.75S WCI  18
CRESTON *      CLOUDY    30  30 100 W12       29.76S WCI  21
HARLAN  *      CLOUDY    28  28 100 SW9       29.78F WCI  20
LAMONI         CLOUDY    32  29  88 W16       29.76S WCI  21
6HR MIN TEMP:  32; 6HR MAX TEMP:  35; 6HR PCP: TRACE;

RED OAK *      CLOUDY    30  28  93 SW9       29.78S WCI  22
SHENANDOAH *   CLOUDY    32  30  93 SW12      29.80S WCI  23
$$

IAZ047>049-059>061-072>074-084-250100-
   CENTRAL IOWA

CITY           SKY/WX    TMP DP  RH WIND       PRES   REMARKS
AMES           CLOUDY    32  28  85 NW7       29.71S WCI  26
6HR MIN TEMP:  32; 6HR MAX TEMP:  34;

ANKENY *       MIX PCPN  32  32 100 W9        29.73S WCI  24
CHARITON *     CLOUDY    34  32  93 W13       29.74R WCI  25
DES MOINES     FLURRIES  34  30  85 W10       29.74R WCI  26
6HR MIN TEMP:  34; 6HR MAX TEMP:  35; 6HR PCP: TRACE;

GRINNELL*      CLOUDY    34  30  86 W13       29.70R WCI  25
KNOXVILLE *    CLOUDY    34  30  86 W12       29.72R WCI  25
MARSHALLTOWN   CLOUDY    33  30  88 W12       29.69R WCI  24
6HR MIN TEMP:  33; 6HR MAX TEMP:  34;

PELLA *        CLOUDY    34  32  91 W7        29.73R WCI  28
PERRY *        CLOUDY    32  30  93 W13       29.73S WCI  22
$$

IAZ004>006-015-016-023>025-035-036-250100-
   NORTH CENTRAL IOWA

CITY           SKY/WX    TMP DP  RH WIND       PRES   REMARKS
ALGONA *       CLOUDY    32  32 100 W9        29.68S WCI  24
CLARION *      CLOUDY    32  32 100 NW9       29.68F WCI  24
ESTHERVILLE    CLOUDY    29  27  92 W8        29.66S WCI  21
6HR MIN TEMP:  29; 6HR MAX TEMP:  32;

FORT DODGE *   CLOUDY    30  27  86 W9        29.71R WCI  22
MASON CITY     CLOUDY    32  29  88 NW12      29.67S WCI  23
6HR MIN TEMP:  32; 6HR MAX TEMP:  33;

FOREST CITY *  CLOUDY    32  30  93 W9        29.66S WCI  24
IOWA FALLS *   CLOUDY    32  30  93 W14       29.70R WCI  22
$$

IAZ007>011-017>019-026>030-037>042-050>054-066-250100-
   NORTHEAST IOWA

CITY           SKY/WX    TMP DP  RH WIND       PRES   REMARKS
CEDAR RAPIDS   CLOUDY    34  32  92 W14       29.66R WCI  25
6HR MIN TEMP:  34; 6HR MAX TEMP:  36;

CHARLES CITY * CLOUDY    34  32  93 NW10G17   29.66R WCI  26
CLINTON *      CLOUDY    36  30  80 NW9       29.64R WCI  29
DECORAH *      CLOUDY    34  32  93 NW7       29.61R WCI  28
DUBUQUE        CLOUDY    34  32  92 NW15      29.59R WCI  24
6HR MIN TEMP:  34; 6HR MAX TEMP:  34;

MONTICELLO *   CLOUDY    36  34  93 NW12      29.63R WCI  27
OELWEIN *      CLOUDY    34  32  93 NW14      29.65R WCI  24
WATERLOO       CLOUDY    34  30  85 W9        29.66S WCI  27
6HR MIN TEMP:  34; 6HR MAX TEMP:  36; 6HR PCP: TRACE;

$$

IAZ064-065-067-068-078-250100-
   EAST CENTRAL IOWA

CITY           SKY/WX    TMP DP  RH WIND       PRES   REMARKS
DAVENPORT      CLOUDY    36  31  82 NW13G23   29.63R WCI  27
6HR MIN TEMP:  35; 6HR MAX TEMP:  36;

IOWA CITY      CLOUDY    36  31  82 NW14      29.69R WCI  27
6HR MIN TEMP:  36; 6HR MAX TEMP:  37;

MT. PLEASANT * CLOUDY    36  31  83 W13       29.70R WCI  27
MUSCATINE *    CLOUDY    37  32  81 W15       29.68R WCI  28
QUAD CITIES    CLOUDY    37  31  78 W15G24    29.64R WCI  28
6HR MIN TEMP:  36; 6HR MAX TEMP:  37;

$$

IAZ062-063-075>077-085>089-095>099-250100-
   SOUTHEAST IOWA

CITY           SKY/WX    TMP DP  RH WIND       PRES   REMARKS
BURLINGTON     CLOUDY    37  33  85 NW13G18   29.68R WCI  29
6HR MIN TEMP:  36; 6HR MAX TEMP:  37;

FAIRFIELD *    CLOUDY    36  32  87 W10G18    29.71R WCI  28
FORT MADISON * CLOUDY    37  34  87 NW20G26   29.70R WCI  27
KEOKUK *       CLOUDY    37  32  81 W12G22    29.71R WCI  30
OSKALOOSA *    CLOUDY    34  31  92 W10       29.71S WCI  26
CENTERVILLE *  CLOUDY    34  32  93 W10       29.75S WCI  26
OTTUMWA        CLOUDY    34  31  88 W9        29.71R WCI  27
6HR MIN TEMP:  34; 6HR MAX TEMP:  37; 6HR PCP: TRACE;

WASHINGTON *   CLOUDY    36  36 100 NW13G21   29.69R WCI  27
$$

ABBREVIATIONS USED IN REMARKS
   TC - TEMPERATURES IN CELSIUS
  WCI - WIND CHILL INDEX
   HX - HEAT INDEX
  VSB - VISIBILITY
$$



USA.gov is the U.S. government's official web portal to all federal, state and local government web resources and services.